Location: Unspecified
(0.0000°N, 0.0000°E)
Time: 22:47:56
(UTC+00:00)

Hubble Space Telescope - Pass Details

Date: 27 September 2023
Orbit: 521 x 525 km, 28.5° (Epoch: 04 October)

Event Time Altitude Azimuth Distance (km) Brightness Sun altitude
Rises 18:25:03 0° 217° (SW) 2,638 4.9 -8.5°
Reaches altitude 10° 18:27:46 10° 199° (SSW) 1,748 3.7 -9.2°
Maximum altitude 18:30:44 20° 151° (SSE) 1,251 2.4 -9.9°
Enters shadow 18:33:06 13° 110° (ESE) 1,579 2.6 -10.5°
